FW0211 Weather Reports


time (UTC)temp
C
wind
direction
speed
KPH
gust
KPH
rain 1hr
cm
rain 24hr
cm
rain mn
cm
humidity
%
barometer
mb
20260510054530 24 156 22.5 33.8 0.00 0.03 0.00 92 1012.0
20260510053028 24 128 24.1 37.0 0.00 0.03 0.00 91 1012.2
20260510051526 24 159 25.7 33.8 0.00 0.03 0.00 92 1012.1
20260510050023 24 142 25.7 35.4 0.00 0.03 0.00 92 1012.1
20260510044523 24 109 20.9 33.8 0.00 0.03 0.03 92 1012.4
20260510043023 24 119 25.7 37.0 0.00 0.03 0.03 92 1012.2
20260510041521 24 147 29.0 41.8 0.00 0.03 0.03 92 1012.5
20260510040021 24 123 29.0 40.2 0.00 0.03 0.03 92 1013.2
20260510034520 24 93 29.0 41.8 0.00 0.03 0.03 93 1013.2
20260510033019 24 99 29.0 45.1 0.00 0.03 0.03 93 1013.1
20260510031532 24 96 20.9 33.8 0.00 0.03 0.03 93 1012.9
20260510030020 24 106 19.3 29.0 0.00 0.03 0.03 93 1012.8
20260510024521 24 88 19.3 27.4 0.00 0.03 0.03 93 1012.8
20260510023013 24 115 25.7 37.0 0.00 0.03 0.03 92 1012.2
20260510021511 24 101 24.1 33.8 0.00 0.03 0.03 92 1012.3
20260510020010 25 80 19.3 27.4 0.00 0.03 0.03 92 1011.8
20260510014509 24 93 17.7 24.1 0.00 0.03 0.03 92 1011.6
20260510013009 24 153 17.7 25.7 0.00 0.03 0.03 92 1010.9
20260510011509 25 120 14.5 22.5 0.00 0.03 0.03 92 1010.8
20260510010008 25 126 16.1 25.7 0.00 0.03 0.03 91 1010.7
20260510004507 25 112 20.9 29.0 0.00 0.03 0.03 91 1010.5
20260510003021 25 135 20.9 33.8 0.00 0.03 0.03 91 1009.9
20260510001506 25 118 19.3 33.8 0.00 0.03 0.03 90 1010.0
20260510000005 25 126 24.1 32.2 0.00 0.03 0.03 90 1010.0
20260509234513 25 113 22.5 33.8 0.00 0.03 0.03 89 1010.1
20260509233004 26 149 20.9 32.2 0.00 0.03 0.03 88 1010.3
20260509231504 27 103 22.5 32.2 0.00 0.03 0.03 85 1010.1
20260509230002 27 138 12.9 22.5 0.00 0.03 0.03 83 1009.9
20260509224501 28 128 9.7 16.1 0.00 0.03 0.03 81 1009.6
20260509223001 28 124 8.0 14.5 0.00 0.03 0.03 81 1009.3
20260509221601 28 140 9.7 12.9 0.00 0.03 0.03 80 1009.1
20260509221501 28 132 8.0 12.9 0.00 0.03 0.03 80 1009.2
20260509220059 29 150 8.0 14.5 0.00 0.03 0.03 79 1009.1
20260509214558 29 173 3.2 8.0 0.00 0.03 0.03 80 1009.1
20260509213101 29 145 3.2 11.3 0.00 0.03 0.03 80 1009.1
20260509211603 28 145 6.4 12.9 0.00 0.03 0.03 80 1009.2
20260509210101 29 158 3.2 8.0 0.00 0.03 0.03 79 1009.1
20260509204555 28 148 3.2 8.0 0.00 0.03 0.03 80 1009.2
20260509203053 28 360 6.4 12.9 0.00 0.03 0.03 80 1009.3
20260509201551 28 262 6.4 12.9 0.00 0.03 0.03 76 1009.4
20260509200053 27 161 0.0 4.8 0.00 0.03 0.03 85 1009.6
20260509194547 27 139 1.6 6.4 0.00 0.03 0.03 84 1009.8
20260509193045 27 121 1.6 12.9 0.00 0.03 0.03 83 1009.9
20260509191543 27 31 6.4 11.3 0.00 0.03 0.03 86 1009.9
20260509190042 26 37 6.4 12.9 0.00 0.03 0.03 91 1009.8
20260509184538 26 55 6.4 11.3 0.00 0.03 0.03 91 1010.5
20260509183050 26 109 4.8 9.7 0.00 0.03 0.03 91 1010.8
20260509181545 26 81 8.0 14.5 0.00 0.03 0.03 91 1011.0
20260509180037 26 118 4.8 11.3 0.00 0.03 0.03 91 1011.1
20260509174537 26 117 4.8 11.3 0.00 0.03 0.03 91 1011.2
20260509173036 26 117 3.2 11.3 0.00 0.03 0.03 91 1011.2
20260509171535 26 134 4.8 12.9 0.00 0.03 0.03 91 1011.3
20260509170035 26 150 9.7 17.7 0.00 0.03 0.03 92 1011.4
20260509164533 26 155 4.8 8.0 0.00 0.03 0.03 94 1011.4
20260509163033 25 9 3.2 16.1 0.00 0.03 0.03 95 1011.4
20260509161531 25 304 3.2 6.4 0.00 0.03 0.03 95 1011.3
20260509160028 25 94 0.0 4.8 0.00 0.03 0.03 95 1011.4
20260509154527 24 128 14.5 22.5 0.00 0.05 0.03 95 1010.6
20260509153027 24 142 1.6 4.8 0.00 0.05 0.03 95 1011.4
20260509151526 24 235 3.2 6.4 0.00 0.05 0.03 95 1011.7
20260509150026 24 192 8.0 11.3 0.00 0.05 0.03 95 1011.7
20260509144534 24 251 3.2 4.8 0.00 0.05 0.03 95 1011.8
20260509143025 25 130 1.6 6.4 0.00 0.05 0.03 95 1011.1
20260509141525 24 55 1.6 6.4 0.00 0.05 0.03 95 1011.5
20260509140125 24 281 3.2 6.4 0.00 0.05 0.03 95 1011.6
20260509134523 25 295 1.6 4.8 0.00 0.05 0.03 95 1011.2
20260509133022 24 141 0.0 1.6 0.00 0.05 0.03 95 1011.0
20260509131519 24 136 4.8 8.0 0.00 0.05 0.03 95 1010.9
20260509130018 23 136 4.8 12.9 0.03 0.05 0.03 95 1010.8
20260509124517 23 150 3.2 6.4 0.03 0.05 0.03 95 1011.0
20260509123017 23 59 0.0 3.2 0.03 0.05 0.03 95 1011.0
20260509121523 23 121 1.6 3.2 0.03 0.05 0.03 95 1010.9
20260509120017 23 10 3.2 4.8 0.00 0.03 0.00 95 1011.1
20260509114515 23 18 6.4 11.3 0.00 0.03 0.00 95 1011.1
20260509113016 23 313 3.2 4.8 0.00 0.03 0.00 95 1011.4
20260509111514 23 243 1.6 4.8 0.00 0.03 0.00 95 1010.7
20260509110013 23 243 1.6 3.2 0.00 0.03 0.00 95 1010.4
20260509104513 23 243 3.2 4.8 0.00 0.03 0.00 95 1010.6
20260509103009 23 192 4.8 8.0 0.00 0.03 0.00 95 1010.5
20260509101512 23 142 3.2 4.8 0.00 0.03 0.00 95 1010.2
20260509100008 23 360 1.6 6.4 0.00 0.03 0.00 95 1010.3
20260509094507 23 128 4.8 8.0 0.00 0.03 0.00 95 1010.0
20260509093008 23 87 4.8 9.7 0.00 0.03 0.00 95 1010.0
20260509091506 23 111 6.4 11.3 0.00 0.03 0.00 95 1010.0
20260509090005 24 360 4.8 8.0 0.00 0.03 0.00 95 1010.0
20260509084513 24 138 3.2 6.4 0.00 0.03 0.00 95 1010.3
20260509083004 24 133 4.8 6.4 0.00 0.03 0.00 95 1010.4
20260509081503 24 120 1.6 4.8 0.00 0.03 0.00 95 1010.6
20260509080008 24 123 3.2 8.0 0.00 0.03 0.00 95 1010.5
20260509074502 24 360 3.2 11.3 0.00 0.03 0.00 95 1010.5
20260509073001 24 155 6.4 11.3 0.00 0.03 0.00 94 1010.4
20260509071600 24 140 9.7 16.1 0.00 0.03 0.00 94 1010.3
20260509070059 24 155 12.9 17.7 0.00 0.03 0.00 94 1010.5
20260509064614 24 360 12.9 19.3 0.00 0.03 0.00 94 1010.6
20260509063057 24 115 11.3 17.7 0.00 0.03 0.00 94 1010.6
20260509061554 24 131 11.3 19.3 0.00 0.03 0.00 94 1010.5
20260509060052 24 119 12.9 20.9 0.00 0.03 0.00 94 1010.7